Showing default

COSMOS 886, 9634

Orbit data source: Space-Track

COSMOS 886, 9634 is a payload satellite owned by PKO (CIS) in LEO that was launched on Mon, 27 Dec 1976 UTC via a TSIKLON-2 launch vehicle from the Tyuratam Missile And Space Complex (TTMTR). Payload-class satellites include a variety of spacecraft equipped with specific instruments for various scientific and technological missions. These include communications satellites like Starlink; space stations such as the ISS; scientific satellites like the Hubble; Earth observation satellites from companies like Planet Labs, Umbra, and HawkEye 360; GPS; miniature CubeSats for education and research; and military/defense satellites.

Loading next visibility...
Identifier
9634, 1976-126A
Orbit
LEO
Country
Flag of CISCIS
Related business
Manufacturer
Kometa
Mission
Spacecraft
Bus & Motor
IS, Unknown motor
Mass
1,400 kg wet, ~1,400 kg dry
Launch date (UTC)
1976-12-27 (49 years ago)
Launch vehicle
TSIKLON-2
Launch site
Tyuratam Missile And Space Complex (TTMTR)
Object type
Payload
Rocket body
Debris
Shape & HBR
Unknown
Radar Cross Section
Large (>1 m²)

Expand to show TLE details & history
Last TLE update: 9 hours ago

TLE from 9 hours ago
0 COSMOS 886
1  9634U 76126A   26130.09701264 -.00000022  00000-0  28081-4 0  9993
2  9634  65.8329 151.1957 1092120 272.9311  74.7470 12.56614471275422
Epoch: 2026-05-10T02:19Z
TLE epoch observation values (Epoch: 2026-05-10T02:19:41.892Z)
Latitude
-0.00007°
Longitude
-111.63387°
Altitude
1,304.234 km
Speed
7.267 km/s
True Right ascension
10h 04m 46s
True Declination
0° 00' 00"
Sunlit
Object was in daylight at epoch
Visualization orbit readout
Latitude
Unknown
Longitude
Unknown
Altitude
Unknown
Speed
Unknown
Apparent Right ascension
Unknown
Apparent Declination
Unknown
Sunlit
N/A
Visualization observer readout
Local Sidereal Time
19:44:58
Azimuth
Unknown
Elevation
Unknown
Doppler factor
Unknown
Orbital elements
Apogee altitude
2,288.874 km
Perigee altitude
582.182 km
Semi-major axis
7,813.665 km
Eccentricity
0.10921
Inclination
65.8329°
RAAN
151.1957°
Arg. of periapsis
272.9311°
True anomaly
87.1715°
Mean anomaly
74.747°
Eccentric anomaly
80.92608°
Mean motion
3.1424 °/min
Orbital period
114.56 mins
BSTAR
0.000028081
Loading maneuver chart data...
Computing Atmospheric mass density...
Loading historical data...
Loading historical data...
Loading historical data...
Loading historical data...
Loading historical data...
Loading historical data...
Loading historical data...

Documentation

Showing up to 5 results
|